Regional Weather Roundup
Issued by NWS

Home | Current Version | Previous Version | Text Only | Print | Product List | Glossary On
Versions: 1 2 3 4 5 6 7 8 9 10 11 12 13 14 15 16 17 18 19 20 21 22 23 24 25 26 27 28 29 30 31 32 33 34 35 36 37 38 39 40 41 42 43 44 45 46 47 48 49 50
000
ASUS43 KDMX 230101
RWRIA

WEATHER ROUNDUP FOR IOWA
NATIONAL WEATHER SERVICE DES MOINES IA
800 PM CDT TUE AUG 22 2017

NOTE: "FAIR" INDICATES FEW OR NO CLOUDS BELOW 12,000 FEET WITH NO
SIGNIFICANT WEATHER AND/OR OBSTRUCTIONS TO VISIBILITY.

* - THESE STATIONS ARE NOT NWS STATIONS...THUS NOT UNDER NWS
QUALITY CONTROL.  THEY ALSO DO NOT REPORT WEATHER SUCH
AS PRECIPITATION OR FOG.

IAZ001>003-012>014-020>022-031>034-043>046-230200-
   NORTHWEST IOWA

CITY           SKY/WX    TMP DP  RH WIND       PRES   REMARKS
CARROLL *      CLEAR     66  57  72 NW5       30.12R
CHEROKEE *     CLEAR     67  51  56 NW5       30.13S
DENISON *      CLEAR     68  55  64 NW5       30.14S
LE MARS *      CLEAR    102 N/A N/A CALM      30.13S
ORANGE CITY *  CLEAR     70  54  56 CALM      30.14S
SHELDON *      CLEAR     63  55  77 NW5       30.12S
SIOUX CITY     CLEAR     69  54  58 NW6       30.13S
SPENCER        CLEAR     64  55  72 NW7       30.12S
STORM LAKE *   CLEAR     64  54  68 NW6       30.13S
$$

IAZ055>058-069>071-079>083-090>094-230200-
   SOUTHWEST IOWA

CITY           SKY/WX    TMP DP  RH WIND       PRES   REMARKS
ATLANTIC *     CLEAR     66  57  72 NW6       30.13R
AUDUBON *      CLEAR     66  55  68 CALM      30.14S
CLARINDA *     CLEAR     66  55  68 N6        30.14S
COUNCIL BLFS * CLEAR     66  55  68 NW7       30.14S
CRESTON *      CLEAR     66  52  59 NW8       30.13S
HARLAN  *      CLEAR     64  59  82 NW5       30.16S
LAMONI         CLEAR     68  51  54 N6        30.10S
RED OAK *      CLEAR     68  55  64 N6        30.13S
SHENANDOAH *   CLEAR     68  57  68 CALM      30.13S
$$

IAZ047>049-059>061-072>074-084-230200-
   CENTRAL IOWA

CITY           SKY/WX    TMP DP  RH WIND       PRES   REMARKS
AMES           CLEAR     65  56  72 NW5       30.09S
ANKENY *       CLEAR     70  50  49 N8        30.10S
BOONE *        CLEAR     66  52  59 NW5       30.09S
CHARITON *     CLEAR     66  50  55 NW8       30.09S
DES MOINES     PTCLDY    72  49  44 N8        30.08S
GRINNELL*      CLEAR     62  54  74 NW5       30.09S
KNOXVILLE *    CLEAR     68  50  52 N6        30.07S
MARSHALLTOWN   CLEAR     64  56  75 NW5       30.07F
NEWTON *       CLEAR     64  54  68 NW7       30.09S
PELLA *        CLEAR     67  53  61 CALM      30.09S
PERRY *          N/A     65  55  71 NW5       30.10S
$$

IAZ004>006-015-016-023>025-035-036-230200-
   NORTH CENTRAL IOWA

CITY           SKY/WX    TMP DP  RH WIND       PRES   REMARKS
ALGONA *       CLEAR     66  54  63 NW5       30.10F
CLARION *      CLEAR     64  57  77 NW5       30.10R
ESTHERVILLE    CLEAR     63  56  78 NW6       30.11S
FORT DODGE *   CLEAR     66  52  59 CALM      30.10S
MASON CITY     CLEAR     62  51  67 NW8       30.10S
FOREST CITY *    N/A     64  50  59 NW6       30.09S
WEBSTER CITY * CLEAR     63  57  82 NW5       30.08S
IOWA FALLS *     N/A     65  55  71 W5        30.10S
$$

IAZ007>011-017>019-026>030-037>042-050>054-066-230200-
   NORTHEAST IOWA

CITY           SKY/WX    TMP DP  RH WIND       PRES   REMARKS
CEDAR RAPIDS   CLEAR     64  54  69 NW7       30.05R
CHARLES CITY * CLEAR     64  52  63 NW7       30.07S
CLINTON *      CLEAR     63  56  78 NW8       30.03R
DECORAH *      CLEAR     66  52  59 NW5       30.03S
DUBUQUE        CLEAR     64  51  62 NW8       30.04R
MONTICELLO *   CLEAR     66  52  59 NW6       30.04R
OELWEIN *      CLEAR     63  55  77 W6        30.06S
WATERLOO       CLEAR     66  51  58 NW6       30.05S
$$

IAZ064-065-067-068-078-230200-
   EAST CENTRAL IOWA

CITY           SKY/WX    TMP DP  RH WIND       PRES   REMARKS
DAVENPORT      CLEAR     64  53  67 NW7       30.04S
IOWA CITY      CLEAR     70  53  54 NW8       30.06R
MUSCATINE *    CLEAR     66  52  59 NW5       30.04S
QUAD CITIES    CLEAR     71  51  49 NW9       30.02R
$$

IAZ062-063-075>077-085>089-095>099-230200-
   SOUTHEAST IOWA

CITY           SKY/WX    TMP DP  RH WIND       PRES   REMARKS
BURLINGTON     CLEAR     69  54  58 NW6       30.04R
FAIRFIELD *    CLEAR     64  52  63 NW6       30.06S
FORT MADISON * CLEAR     64  55  72 NW6       30.06R
KEOKUK *       CLEAR     70  54  56 N7        30.04R
OSKALOOSA *      N/A     64  53  66 N3        30.08S
OTTUMWA        CLEAR     67  50  54 NW8       30.07S
WASHINGTON *   CLEAR     64  55  72 NW8       30.07R
$$

ABBREVIATIONS USED IN REMARKS
   TC - TEMPERATURES IN CELSIUS
  WCI - WIND CHILL INDEX
   HX - HEAT INDEX
  VSB - VISIBILITY
$$




USA.gov is the U.S. government's official web portal to all federal, state and local government web resources and services.